TimeCST,TemperatureF,Dew PointF,Humidity,Sea Level PressureIn,VisibilityMPH,Wind Direction,Wind SpeedMPH,Gust SpeedMPH,PrecipitationIn,Events,Conditions,WindDirDegrees,DateUTC
12:13 AM,32.0,26.6,80,30.04,10.0,Calm,Calm,-,N/A,,Clear,0,2012-11-29 06:13:00
12:33 AM,30.2,26.6,86,30.03,10.0,SSE,3.5,-,N/A,,Clear,150,2012-11-29 06:33:00
12:53 AM,30.2,24.8,80,30.03,10.0,Calm,Calm,-,N/A,,Clear,0,2012-11-29 06:53:00
1:13 AM,28.4,24.8,86,30.04,10.0,Calm,Calm,-,N/A,,Clear,0,2012-11-29 07:13:00
1:33 AM,28.4,24.8,86,30.04,10.0,Calm,Calm,-,N/A,,Clear,0,2012-11-29 07:33:00
1:53 AM,28.4,24.8,86,30.04,10.0,Calm,Calm,-,N/A,,Clear,0,2012-11-29 07:53:00
2:13 AM,26.6,21.2,80,30.04,10.0,Calm,Calm,-,N/A,,Clear,0,2012-11-29 08:13:00
2:33 AM,24.8,21.2,86,30.05,10.0,Calm,Calm,-,N/A,,Clear,0,2012-11-29 08:33:00
2:53 AM,26.6,23.0,86,30.05,10.0,Calm,Calm,-,N/A,,Clear,0,2012-11-29 08:53:00
3:13 AM,24.8,23.0,93,30.04,10.0,Calm,Calm,-,N/A,,Clear,0,2012-11-29 09:13:00
3:33 AM,23.0,23.0,100,30.04,10.0,Calm,Calm,-,N/A,,Clear,0,2012-11-29 09:33:00
4:13 AM,23.0,21.2,93,30.03,10.0,NNE,3.5,-,N/A,,Clear,30,2012-11-29 10:13:00
4:33 AM,24.8,23.0,93,30.04,10.0,Calm,Calm,-,N/A,,Clear,0,2012-11-29 10:33:00
4:53 AM,24.8,24.8,100,30.04,10.0,Calm,Calm,-,N/A,,Clear,0,2012-11-29 10:53:00
5:13 AM,24.8,23.0,93,30.04,7.0,NE,3.5,-,N/A,,Clear,50,2012-11-29 11:13:00
5:33 AM,24.8,23.0,93,30.04,7.0,Calm,Calm,-,N/A,,Clear,0,2012-11-29 11:33:00
5:53 AM,24.8,23.0,93,30.04,7.0,NE,3.5,-,N/A,,Clear,50,2012-11-29 11:53:00
6:13 AM,21.2,21.2,100,30.05,7.0,NE,3.5,-,N/A,,Clear,40,2012-11-29 12:13:00
6:33 AM,24.8,23.0,93,30.05,7.0,NE,4.6,-,N/A,,Clear,50,2012-11-29 12:33:00
6:53 AM,24.8,23.0,93,30.06,7.0,Calm,Calm,-,N/A,,Clear,0,2012-11-29 12:53:00
7:13 AM,24.8,23.0,93,30.06,7.0,NNE,6.9,-,N/A,,Clear,30,2012-11-29 13:13:00
7:33 AM,24.8,23.0,93,30.07,7.0,NE,5.8,-,N/A,,Clear,40,2012-11-29 13:33:00
7:53 AM,24.8,23.0,93,30.07,5.0,NE,5.8,-,N/A,,Clear,50,2012-11-29 13:53:00
8:13 AM,24.8,24.8,100,30.07,5.0,NE,6.9,-,N/A,,Clear,50,2012-11-29 14:13:00
8:33 AM,24.8,24.8,100,30.07,5.0,ENE,6.9,-,N/A,,Clear,70,2012-11-29 14:33:00
8:53 AM,26.6,26.6,100,30.07,5.0,ENE,6.9,-,N/A,,Clear,60,2012-11-29 14:53:00
9:13 AM,28.4,26.6,93,30.08,7.0,ENE,6.9,-,N/A,,Clear,60,2012-11-29 15:13:00
9:33 AM,30.2,26.6,86,30.07,7.0,ENE,11.5,-,N/A,,Clear,70,2012-11-29 15:33:00
10:13 AM,33.8,26.6,75,30.08,10.0,ENE,10.4,-,N/A,,Clear,70,2012-11-29 16:13:00
10:33 AM,33.8,26.6,75,30.08,10.0,ENE,11.5,-,N/A,,Clear,60,2012-11-29 16:33:00
10:53 AM,33.8,26.6,75,30.08,10.0,ENE,10.4,-,N/A,,Clear,70,2012-11-29 16:53:00
11:13 AM,35.6,26.6,70,30.08,10.0,ENE,10.4,-,N/A,,Clear,70,2012-11-29 17:13:00
11:33 AM,35.6,26.6,70,30.07,10.0,ENE,13.8,-,N/A,,Clear,60,2012-11-29 17:33:00
11:53 AM,37.4,26.6,65,30.07,7.0,NE,10.4,-,N/A,,Clear,50,2012-11-29 17:53:00
12:13 PM,37.4,26.6,65,30.07,10.0,ENE,11.5,-,N/A,,Clear,60,2012-11-29 18:13:00
12:33 PM,37.4,26.6,65,30.05,10.0,NE,11.5,-,N/A,,Clear,40,2012-11-29 18:33:00
12:53 PM,37.4,26.6,65,30.05,10.0,ENE,11.5,-,N/A,,Clear,60,2012-11-29 18:53:00
1:13 PM,37.4,26.6,65,30.06,10.0,NE,11.5,16.1,N/A,,Clear,40,2012-11-29 19:13:00
1:33 PM,37.4,26.6,65,30.04,10.0,ENE,12.7,16.1,N/A,,Clear,60,2012-11-29 19:33:00
1:53 PM,37.4,28.4,70,30.04,10.0,ENE,10.4,-,N/A,,Clear,60,2012-11-29 19:53:00
2:13 PM,37.4,26.6,65,30.04,10.0,ENE,10.4,-,N/A,,Clear,60,2012-11-29 20:13:00
2:33 PM,37.4,26.6,65,30.04,10.0,NE,9.2,-,N/A,,Clear,50,2012-11-29 20:33:00
2:53 PM,37.4,28.4,70,30.04,10.0,NE,10.4,-,N/A,,Clear,50,2012-11-29 20:53:00
3:13 PM,37.4,28.4,70,30.04,10.0,ENE,8.1,-,N/A,,Clear,60,2012-11-29 21:13:00
3:33 PM,37.4,28.4,70,30.04,10.0,ENE,8.1,-,N/A,,Clear,70,2012-11-29 21:33:00
3:53 PM,35.6,26.6,70,30.03,10.0,ENE,12.7,19.6,N/A,,Clear,70,2012-11-29 21:53:00
4:13 PM,35.6,26.6,70,30.02,10.0,East,16.1,20.7,N/A,,Clear,80,2012-11-29 22:13:00
4:33 PM,33.8,26.6,75,30.04,10.0,ENE,8.1,-,N/A,,Clear,60,2012-11-29 22:33:00
4:54 PM,33.8,26.6,75,30.05,10.0,ENE,8.1,-,N/A,,Clear,70,2012-11-29 22:54:00
5:13 PM,33.8,28.4,81,30.05,10.0,ENE,8.1,-,N/A,,Clear,60,2012-11-29 23:13:00
5:33 PM,33.8,28.4,81,30.06,10.0,ENE,11.5,-,N/A,,Clear,60,2012-11-29 23:33:00
5:54 PM,33.8,28.4,81,30.07,10.0,ENE,10.4,-,N/A,,Clear,60,2012-11-29 23:54:00
6:13 PM,32.0,28.4,87,30.07,10.0,ENE,12.7,19.6,N/A,,Clear,70,2012-11-30 00:13:00
6:33 PM,32.0,28.4,87,30.09,10.0,ENE,8.1,-,N/A,,Clear,60,2012-11-30 00:33:00
6:53 PM,30.2,28.4,93,30.09,10.0,ENE,8.1,-,N/A,,Clear,70,2012-11-30 00:53:00
7:13 PM,30.2,28.4,93,30.09,10.0,ENE,9.2,-,N/A,,Clear,60,2012-11-30 01:13:00
7:34 PM,30.2,28.4,93,30.08,10.0,ENE,11.5,16.1,N/A,,Clear,70,2012-11-30 01:34:00
7:53 PM,30.2,28.4,93,30.08,10.0,ENE,12.7,-,N/A,,Clear,70,2012-11-30 01:53:00
8:13 PM,30.2,28.4,93,30.07,10.0,ENE,15.0,-,N/A,,Clear,70,2012-11-30 02:13:00
8:34 PM,30.2,28.4,93,30.08,10.0,ENE,12.7,-,N/A,,Clear,60,2012-11-30 02:34:00
8:53 PM,30.2,28.4,93,30.08,10.0,ENE,10.4,16.1,N/A,,Clear,60,2012-11-30 02:53:00
9:13 PM,30.2,28.4,93,30.07,10.0,ENE,13.8,-,N/A,,Clear,70,2012-11-30 03:13:00
9:34 PM,30.2,28.4,93,30.08,10.0,ENE,12.7,16.1,N/A,,Clear,70,2012-11-30 03:34:00
9:53 PM,30.2,28.4,93,30.08,10.0,ENE,11.5,17.3,N/A,,Clear,70,2012-11-30 03:53:00
10:13 PM,30.2,26.6,86,30.08,10.0,ENE,10.4,17.3,N/A,,Scattered Clouds,60,2012-11-30 04:13:00
10:34 PM,30.2,26.6,86,30.09,10.0,ENE,9.2,-,N/A,,Scattered Clouds,60,2012-11-30 04:34:00
10:53 PM,30.2,26.6,86,30.09,10.0,ENE,9.2,-,N/A,,Clear,60,2012-11-30 04:53:00
11:13 PM,30.2,26.6,86,30.08,10.0,ENE,10.4,-,N/A,,Scattered Clouds,70,2012-11-30 05:13:00
11:34 PM,28.4,26.6,93,30.08,10.0,ENE,11.5,16.1,N/A,,Scattered Clouds,70,2012-11-30 05:34:00
11:53 PM,28.4,26.6,93,30.09,10.0,NE,9.2,-,N/A,,Scattered Clouds,50,2012-11-30 05:53:00